Meteo pe oră la Dabrowa

Astăzi, 10 Aprilie, Sâmbătă

Timp Temperatura Precipitaţii Vânt Presiune Umiditate
00:00 +4°C° 0 mm 4 m/s 754 mmHg 67%
01:00 +4°C° 0 mm 4 m/s 753 mmHg 69%
02:00 +4°C° 0 mm 4 m/s 753 mmHg 71%
03:00 +3°C° 0 mm 3 m/s 753 mmHg 73%
04:00 +3°C° 0 mm 3 m/s 753 mmHg 75%
05:00 +4°C° 0 mm 3 m/s 753 mmHg 73%
06:00 +5°C° 0 mm 3 m/s 753 mmHg 71%
07:00 +5°C° 0 mm 3 m/s 753 mmHg 70%
08:00 +8°C° 0 mm 3 m/s 753 mmHg 64%
09:00 +10°C° 0 mm 3 m/s 753 mmHg 58%
10:00 +12°C° 0 mm 3 m/s 753 mmHg 52%
11:00 +13°C° 0 mm 3 m/s 753 mmHg 50%
12:00 +14°C° 0 mm 4 m/s 753 mmHg 47%
13:00 +15°C° 0 mm 4 m/s 753 mmHg 45%
14:00 +14°C° 0 mm 3 m/s 753 mmHg 49%
15:00 +14°C° 0 mm 3 m/s 753 mmHg 53%
16:00 +13°C° 0 mm 3 m/s 753 mmHg 57%
17:00 +13°C° 0.1 mm 2 m/s 754 mmHg 65%
18:00 +12°C° 0.1 mm 2 m/s 754 mmHg 72%
19:00 +9°C° 0.1 mm 2 m/s 755 mmHg 80%
20:00 +10°C° 0 mm 1 m/s 755 mmHg 81%
21:00 +10°C° 0 mm 1 m/s 755 mmHg 82%
22:00 +9°C° 0 mm 0 m/s 756 mmHg 83%
23:00 +9°C° 0 mm 0 m/s 756 mmHg 84%

Mâine, 11 Aprilie, Duminică

Timp Temperatura Precipitaţii Vânt Presiune Umiditate
00:00 +10°C° 0 mm 1 m/s 756 mmHg 84%
01:00 +10°C° 0 mm 1 m/s 756 mmHg 85%
02:00 +10°C° 0 mm 1 m/s 756 mmHg 85%
03:00 +10°C° 0 mm 1 m/s 756 mmHg 86%
04:00 +8°C° 0 mm 2 m/s 756 mmHg 86%
05:00 +9°C° 0 mm 2 m/s 756 mmHg 83%
06:00 +10°C° 0 mm 2 m/s 756 mmHg 81%
07:00 +10°C° 0 mm 3 m/s 756 mmHg 78%
08:00 +12°C° 0 mm 4 m/s 756 mmHg 69%
09:00 +14°C° 0 mm 5 m/s 756 mmHg 59%
10:00 +15°C° 0 mm 6 m/s 756 mmHg 50%
11:00 +16°C° 0 mm 6 m/s 756 mmHg 48%
12:00 +17°C° 0 mm 6 m/s 755 mmHg 45%
13:00 +17°C° 0 mm 7 m/s 755 mmHg 43%
14:00 +17°C° 0 mm 6 m/s 755 mmHg 43%
15:00 +17°C° 0 mm 6 m/s 755 mmHg 44%
16:00 +19°C° 0 mm 5 m/s 754 mmHg 45%
17:00 +16°C° 0 mm 5 m/s 755 mmHg 48%
18:00 +15°C° 0 mm 6 m/s 755 mmHg 51%
19:00 +14°C° 0 mm 6 m/s 755 mmHg 53%
20:00 +13°C° 0 mm 5 m/s 755 mmHg 57%
21:00 +12°C° 0 mm 4 m/s 755 mmHg 61%
22:00 +12°C° 0 mm 3 m/s 755 mmHg 65%
23:00 +11°C° 0 mm 3 m/s 755 mmHg 68%

Poimâine, 12 Aprilie, Luni

Timp Temperatura Precipitaţii Vânt Presiune Umiditate
00:00 +11°C° 0 mm 4 m/s 755 mmHg 72%
01:00 +10°C° 0 mm 5 m/s 755 mmHg 75%
02:00 +10°C° 0 mm 5 m/s 755 mmHg 75%
03:00 +10°C° 0 mm 4 m/s 754 mmHg 76%
04:00 +10°C° 0 mm 4 m/s 754 mmHg 76%
05:00 +10°C° 0 mm 4 m/s 754 mmHg 77%
06:00 +10°C° 0 mm 4 m/s 754 mmHg 78%
07:00 +10°C° 0 mm 4 m/s 754 mmHg 78%
08:00 +11°C° 0 mm 4 m/s 754 mmHg 74%
09:00 +12°C° 0 mm 4 m/s 754 mmHg 69%
10:00 +13°C° 0 mm 3 m/s 754 mmHg 64%
11:00 +14°C° 0 mm 3 m/s 754 mmHg 62%
12:00 +14°C° 0 mm 3 m/s 754 mmHg 60%
13:00 +16°C° 0 mm 3 m/s 754 mmHg 58%
14:00 +16°C° 0 mm 2 m/s 754 mmHg 58%
15:00 +16°C° 0 mm 2 m/s 753 mmHg 58%
16:00 +16°C° 0 mm 2 m/s 753 mmHg 58%
17:00 +15°C° 0 mm 2 m/s 753 mmHg 62%
18:00 +15°C° 0 mm 2 m/s 754 mmHg 66%
19:00 +14°C° 0 mm 2 m/s 754 mmHg 70%
20:00 +13°C° 0 mm 2 m/s 754 mmHg 73%
21:00 +13°C° 0 mm 2 m/s 754 mmHg 75%
22:00 +12°C° 0 mm 2 m/s 754 mmHg 78%
23:00 +10°C° 0 mm 3 m/s 754 mmHg 80%

13 Aprilie, Marţi

Timp Temperatura Precipitaţii Vânt Presiune Umiditate
00:00 +8°C° 0 mm 4 m/s 754 mmHg 82%
01:00 +7°C° 0 mm 5 m/s 755 mmHg 84%
02:00 +6°C° 0 mm 5 m/s 755 mmHg 83%
03:00 +5°C° 0 mm 5 m/s 755 mmHg 83%
04:00 +5°C° 0 mm 5 m/s 755 mmHg 83%
05:00 +3°C° 0.6 mm 5 m/s 755 mmHg 86%
06:00 +2°C° 0.6 mm 5 m/s 756 mmHg 88%
07:00 +2°C° 0.6 mm 6 m/s 756 mmHg 90%
08:00 +1°C° 1 mm 6 m/s 756 mmHg 92%
09:00 +1°C° 1 mm 6 m/s 757 mmHg 94%
10:00 -1°C° 1 mm 6 m/s 757 mmHg 96%
11:00 -1°C° 0.8 mm 6 m/s 758 mmHg 96%
12:00 0°C° 0.8 mm 5 m/s 758 mmHg 97%
13:00 0°C° 0.8 mm 5 m/s 758 mmHg 97%
14:00 0°C° 0.1 mm 5 m/s 758 mmHg 96%
15:00 +1°C° 0.1 mm 5 m/s 758 mmHg 96%
16:00 +1°C° 0.1 mm 4 m/s 758 mmHg 95%
17:00 +1°C° 0 mm 4 m/s 758 mmHg 94%
18:00 +1°C° 0 mm 4 m/s 758 mmHg 94%
19:00 +2°C° 0 mm 3 m/s 758 mmHg 93%
20:00 +2°C° 0 mm 3 m/s 758 mmHg 93%
21:00 +1°C° 0 mm 3 m/s 758 mmHg 93%
22:00 +1°C° 0 mm 3 m/s 758 mmHg 92%
23:00 +1°C° 0 mm 3 m/s 758 mmHg 92%

14 Aprilie, Miercuri

Timp Temperatura Precipitaţii Vânt Presiune Umiditate
00:00 0°C° 0 mm 4 m/s 757 mmHg 91%
01:00 0°C° 0 mm 4 m/s 757 mmHg 90%
02:00 0°C° 0.3 mm 4 m/s 757 mmHg 92%
03:00 -1°C° 0.3 mm 4 m/s 757 mmHg 94%
04:00 -1°C° 0.3 mm 4 m/s 757 mmHg 96%
05:00 -1°C° 0.4 mm 5 m/s 757 mmHg 95%
06:00 -1°C° 0.4 mm 5 m/s 757 mmHg 95%
07:00 0°C° 0.4 mm 5 m/s 757 mmHg 95%
08:00 +1°C° 0.1 mm 6 m/s 757 mmHg 90%
09:00 +2°C° 0.1 mm 6 m/s 757 mmHg 85%
10:00 +2°C° 0.1 mm 7 m/s 757 mmHg 80%
11:00 +3°C° 0.1 mm 7 m/s 756 mmHg 78%
12:00 +3°C° 0.1 mm 7 m/s 756 mmHg 76%
13:00 +4°C° 0.1 mm 7 m/s 756 mmHg 73%
14:00 +3°C° 0.3 mm 7 m/s 756 mmHg 76%
15:00 +3°C° 0.3 mm 6 m/s 756 mmHg 79%
16:00 +2°C° 0.3 mm 6 m/s 756 mmHg 82%
17:00 +2°C° 0.5 mm 7 m/s 756 mmHg 84%
18:00 0°C° 0.5 mm 7 m/s 756 mmHg 87%
19:00 -1°C° 0.5 mm 7 m/s 756 mmHg 89%
20:00 -1°C° 0.4 mm 7 m/s 756 mmHg 91%
21:00 -1°C° 0.4 mm 7 m/s 756 mmHg 93%
22:00 -2°C° 0.4 mm 7 m/s 755 mmHg 96%
23:00 -2°C° 0.6 mm 7 m/s 755 mmHg 96%

15 Aprilie, Joi

Timp Temperatura Precipitaţii Vânt Presiune Umiditate
00:00 -2°C° 0.6 mm 7 m/s 755 mmHg 96%
01:00 -2°C° 0.6 mm 7 m/s 755 mmHg 97%
02:00 -2°C° 0.8 mm 7 m/s 754 mmHg 97%
03:00 -2°C° 0.8 mm 7 m/s 754 mmHg 97%
04:00 -2°C° 0.8 mm 7 m/s 754 mmHg 97%
05:00 -2°C° 1 mm 7 m/s 754 mmHg 97%
06:00 -2°C° 1 mm 7 m/s 754 mmHg 98%
07:00 -2°C° 1 mm 6 m/s 754 mmHg 98%
08:00 -2°C° 0.6 mm 6 m/s 754 mmHg 98%
09:00 -2°C° 0.6 mm 6 m/s 755 mmHg 98%
10:00 -2°C° 0.6 mm 6 m/s 755 mmHg 98%
11:00 -2°C° 0.4 mm 6 m/s 755 mmHg 98%
12:00 -1°C° 0.4 mm 5 m/s 755 mmHg 98%
13:00 -1°C° 0.4 mm 5 m/s 755 mmHg 98%
14:00 -1°C° 0.4 mm 5 m/s 755 mmHg 98%
15:00 -1°C° 0.4 mm 5 m/s 755 mmHg 98%
16:00 -1°C° 0.4 mm 5 m/s 755 mmHg 99%
17:00 0°C° 0.6 mm 5 m/s 755 mmHg 99%
18:00 0°C° 0.6 mm 5 m/s 755 mmHg 99%
19:00 0°C° 0.6 mm 5 m/s 755 mmHg 98%
20:00 0°C° 0.5 mm 5 m/s 756 mmHg 98%
21:00 0°C° 0.5 mm 5 m/s 756 mmHg 98%
22:00 +1°C° 0.5 mm 5 m/s 756 mmHg 98%
23:00 +1°C° 0.1 mm 5 m/s 756 mmHg 97%
Arată mai mult

Formular de consimțământ

Meteoprog și furnizorii noștri de servicii pot stoca și accesa date personale, precum cookies, identificatori de dispozitiv sau alte tehnologii similare pe dispozitivul dumneavoastră și procesa astfel de date pentru a personaliza conținutul și reclamele, dar și pentru a oferi caracteristici de social media și pentru a analiza traficul.

  • Stocarea și/sau accesarea informațiilor pe dispozitivul dumneavoastră

    Cookies, identificatori de dispozitiv sau alte informații pot fi stocate sau accesate pe dispozitiv în scopurile indicate mai sus.

  • Reclame și conținut personalizat, evaluarea reclamelor și a conținutului, informații despre audiențe și dezvoltarea produselor

    Reclamele și conținutul pot fi personalizate pe baza unui profil. Pot fi adăugate date suplimentare pentru a personaliza mai bine reclamele și conținutul. Performanța reclamelor și conținutului poate fi măsurată. Pot fi obținute informații despre utilizatorii care au văzut reclamele și conținutul. Aceste date pot fi utilizate pentru a dezvolta sau îmbunătăți experiența utilizatorilor, sistemele și software-ul.

Dând clic pe ‘Sunt de acord’, permiteți utilizarea cookie-urilor menționate, a identificatorilor de dispozitiv, balizelor web sau altor tehnologii similare. Setările pot fi modificate din browser-ul dispozitivului dumneavoastră.

În anumite scopuri, interesele legitime pot prima asupra consimțământului. Puteți citi mai multe informații în acest sens în Politica privind Confidențialitatea Datelor și Cookie.